Location: Alto Pass Reservoir
(37.5801°N, 89.3084°W)
Time: 11:18:15
(UTC+00:00)

Cosmos 1666 - Pass Details

Date: 28 June 2022
Orbit: 489 x 511 km, 82.5° (Epoch: 07 August)

Event Time Altitude Azimuth Distance (km) Brightness Sun altitude
Exits shadow 08:54:22 - 149° (SSE) 2,502 6.0 -16.7°
Reaches altitude 10° 08:56:44 10° 131° (SE) 1,717 5.4 -16.4°
Maximum altitude 08:59:16 17° 88° (E) 1,318 5.3 -16.1°
Drops below altitude 10° 09:01:48 10° 46° (NE) 1,718 6.7 -15.7°
Sets 09:04:26 0° 26° (NNE) 2,603 7.8 -15.4°
